TimeMDT,TemperatureF,Dew PointF,Humidity,Sea Level PressureIn,VisibilityMPH,Wind Direction,Wind SpeedMPH,Gust SpeedMPH,PrecipitationIn,Events,Conditions,WindDirDegrees,DateUTC
12:55 AM,53.6,10.4,18,30.11,10.0,SSW,8.1,-,N/A,,Clear,200,2012-10-05 06:55:00
1:16 AM,53.6,10.4,18,30.11,10.0,WSW,3.5,-,N/A,,Clear,250,2012-10-05 07:16:00
1:55 AM,51.8,10.4,19,30.12,10.0,SSE,9.2,-,N/A,,Clear,160,2012-10-05 07:55:00
2:35 AM,50.0,12.2,22,30.14,10.0,SSE,5.8,-,N/A,,Clear,160,2012-10-05 08:35:00
2:55 AM,50.0,12.2,22,30.15,10.0,SSE,6.9,-,N/A,,Clear,160,2012-10-05 08:55:00
3:55 AM,51.8,10.4,19,30.16,10.0,North,12.7,-,N/A,,Clear,350,2012-10-05 09:55:00
4:15 AM,51.8,10.4,19,30.15,10.0,NNW,9.2,-,N/A,,Clear,330,2012-10-05 10:15:00
4:55 AM,48.2,10.4,22,30.16,10.0,SW,5.8,-,N/A,,Clear,220,2012-10-05 10:55:00
5:15 AM,48.2,10.4,22,30.17,10.0,NNE,3.5,-,N/A,,Clear,20,2012-10-05 11:15:00
5:56 AM,46.4,10.4,23,30.18,10.0,WSW,3.5,-,N/A,,Clear,240,2012-10-05 11:56:00
6:15 AM,46.4,10.4,23,30.18,10.0,East,3.5,-,N/A,,Clear,100,2012-10-05 12:15:00
6:35 AM,46.4,10.4,23,30.19,10.0,NE,5.8,-,N/A,,Clear,40,2012-10-05 12:35:00
6:55 AM,48.2,10.4,22,30.19,10.0,NNE,8.1,-,N/A,,Clear,30,2012-10-05 12:55:00
7:15 AM,46.4,8.6,22,30.20,10.0,NNE,9.2,-,N/A,,Clear,30,2012-10-05 13:15:00
7:35 AM,46.4,8.6,22,30.21,10.0,ENE,3.5,-,N/A,,Clear,60,2012-10-05 13:35:00
7:55 AM,42.8,10.4,27,30.22,10.0,West,4.6,-,N/A,,Clear,280,2012-10-05 13:55:00
8:15 AM,42.8,12.2,29,30.22,10.0,West,4.6,-,N/A,,Clear,280,2012-10-05 14:15:00
8:35 AM,46.4,10.4,23,30.22,10.0,West,4.6,-,N/A,,Clear,260,2012-10-05 14:35:00
8:55 AM,48.2,12.2,24,30.23,10.0,WSW,3.5,-,N/A,,Clear,250,2012-10-05 14:55:00
9:15 AM,46.4,10.4,23,30.23,10.0,SSE,6.9,-,N/A,,Clear,160,2012-10-05 15:15:00
9:55 AM,51.8,10.4,19,30.24,10.0,SSE,4.6,-,N/A,,Clear,160,2012-10-05 15:55:00
10:15 AM,51.8,10.4,19,30.24,10.0,SSE,3.5,-,N/A,,Clear,150,2012-10-05 16:15:00
10:35 AM,53.6,10.4,18,30.24,10.0,SSE,6.9,-,N/A,,Clear,160,2012-10-05 16:35:00
11:15 AM,53.6,10.4,18,30.24,10.0,Calm,Calm,-,N/A,,Clear,0,2012-10-05 17:15:00
11:35 AM,55.4,10.4,17,30.24,10.0,South,4.6,-,N/A,,Clear,180,2012-10-05 17:35:00
12:35 PM,57.2,10.4,16,30.22,10.0,SSE,5.8,-,N/A,,Clear,160,2012-10-05 18:35:00
1:15 PM,57.2,12.2,17,30.21,10.0,SSE,4.6,-,N/A,,Unknown,150,2012-10-05 19:15:00
1:55 PM,59.0,12.2,16,30.20,10.0,SE,6.9,-,N/A,,Clear,140,2012-10-05 19:55:00
2:15 PM,59.0,12.2,16,30.19,10.0,East,3.5,-,N/A,,Clear,80,2012-10-05 20:15:00
2:35 PM,60.8,12.2,15,30.18,10.0,ESE,8.1,-,N/A,,Clear,120,2012-10-05 20:35:00
2:55 PM,59.0,12.2,16,30.18,10.0,East,6.9,-,N/A,,Clear,100,2012-10-05 20:55:00
3:15 PM,60.8,12.2,15,30.17,10.0,ESE,6.9,-,N/A,,Clear,110,2012-10-05 21:15:00
3:35 PM,60.8,12.2,15,30.16,10.0,East,4.6,-,N/A,,Clear,100,2012-10-05 21:35:00
3:55 PM,60.8,12.2,15,30.16,10.0,East,5.8,-,N/A,,Clear,100,2012-10-05 21:55:00
4:15 PM,60.8,12.2,15,30.16,10.0,East,8.1,-,N/A,,Clear,90,2012-10-05 22:15:00
4:35 PM,60.8,12.2,15,30.15,10.0,ESE,4.6,-,N/A,,Clear,120,2012-10-05 22:35:00
4:55 PM,60.8,12.2,15,30.15,10.0,ESE,6.9,-,N/A,,Clear,110,2012-10-05 22:55:00
5:15 PM,60.8,12.2,15,30.15,10.0,South,3.5,-,N/A,,Clear,170,2012-10-05 23:15:00
5:35 PM,60.8,12.2,15,30.14,10.0,SE,5.8,-,N/A,,Clear,130,2012-10-05 23:35:00
5:55 PM,60.8,12.2,15,30.14,10.0,South,3.5,-,N/A,,Clear,170,2012-10-05 23:55:00
6:35 PM,59.0,10.4,15,30.13,10.0,South,5.8,-,N/A,,Clear,170,2012-10-06 00:35:00
6:55 PM,59.0,10.4,15,30.12,10.0,SSE,5.8,-,N/A,,Clear,160,2012-10-06 00:55:00
7:15 PM,57.2,10.4,16,30.12,10.0,SSE,4.6,-,N/A,,Clear,160,2012-10-06 01:15:00
7:55 PM,57.2,12.2,17,30.13,10.0,South,4.6,-,N/A,,Clear,190,2012-10-06 01:55:00
8:15 PM,55.4,12.2,18,30.14,10.0,WNW,4.6,-,N/A,,Clear,300,2012-10-06 02:15:00
8:35 PM,53.6,12.2,19,30.14,10.0,NW,5.8,-,N/A,,Clear,310,2012-10-06 02:35:00
8:36 PM,53.6,12.2,19,30.14,10.0,NW,5.8,-,N/A,,Clear,310,2012-10-06 02:36:00
8:55 PM,55.4,12.2,18,30.14,10.0,WNW,5.8,-,N/A,,Clear,290,2012-10-06 02:55:00
9:35 PM,51.8,12.2,21,30.15,10.0,WNW,6.9,-,N/A,,Clear,300,2012-10-06 03:35:00
9:55 PM,53.6,12.2,19,30.15,10.0,NNW,3.5,-,N/A,,Clear,340,2012-10-06 03:55:00
10:15 PM,53.6,12.2,19,30.15,10.0,NNE,4.6,-,N/A,,Clear,30,2012-10-06 04:15:00
10:35 PM,53.6,12.2,19,30.16,10.0,Calm,Calm,-,N/A,,Clear,0,2012-10-06 04:35:00
10:55 PM,51.8,12.2,21,30.16,10.0,West,8.1,-,N/A,,Clear,280,2012-10-06 04:55:00
11:15 PM,51.8,10.4,19,30.15,10.0,NW,6.9,-,N/A,,Clear,320,2012-10-06 05:15:00
11:55 PM,51.8,12.2,21,30.16,10.0,East,8.1,-,N/A,,Clear,80,2012-10-06 05:55:00